[[{"header":{"parameterUnit":"m.s-1","parameterCategory":2,"la1":30.2991,"la2":30.254,"lo1":-89.0895,"lo2":-89.0444,"dy":0.0017,"dx":0.0017,"nx":28,"ny":28,"refTime":"2025-06-01T03:00:00:Z","depth":"0","parameterNumber":2,"parameterNumberName":"U-component_of_CURRENTS"},"data":[0,0,0,0,0,0,0,0,0,0,0,0,0,0,0,0,0,0,0,0,0,0,0,0,0,0,0,0,0,0,0,0,0,0,0,0,0,0,0,0,0,0,0,0,0,0,0,0,0,0,0,0,0,0,0,0,0,0,0.3967,0.3968,0,0.4061,0.4061,0.4062,0.4098,0.4098,0.4098,0.4098,0.4051,0.405,0.4049,0,0,0,0,0,0,0,0,0,0,0,0,0,0.3856,0.3857,0.3967,0.3968,0.3969,0.406,0.4061,0.4062,0.4098,0.4098,0.4098,0.4098,0.4052,0.405,0.4049,0,0,0,0,0,0,0,0,0,0,0,0,0,0.3919,0.3858,0.3966,0.4001,0.4005,0.406,0.4061,0.4063,0.4098,0.4098,0.4098,0.4098,0.4052,0.405,0.4048,0.4037,0,0,0.4043,0.4042,0,0,0,0,0,0,0,0,0.3916,0.3923,0.3994,0.3998,0.4003,0.407,0.4006,0.4048,0.4098,0.4059,0.4098,0.4098,0.4047,0.4045,0.406,0.4034,0.4032,0.4043,0.4041,0.4041,0.404,0,0,0,0,0,0,0,0.3911,0.3919,0.4001,0.3996,0.4001,0.4025,0.4033,0.4014,0.4046,0.4063,0.4066,0.4082,0.4048,0.4062,0.4059,0.4032,0.4043,0.4041,0.404,0.4039,0.4031,0.4032,0,0,0,0,0,0,0.3904,0.3915,0.3998,0.4004,0.3962,0.4027,0.4036,0.4046,0.405,0.4053,0.4082,0.4083,0.4065,0.4061,0.4057,0.4117,0.4041,0.4039,0.4038,0.403,0.4031,0.4032,0,0,0,0,0,0,0.3901,0.391,0.3994,0.3964,0.3977,0.4028,0.404,0.4048,0.4062,0.4067,0.4066,0.4088,0.4065,0.406,0.4059,0.4112,0.4038,0.4036,0.4029,0.403,0.4031,0.4187,0,0,0,0,0,0,0.3898,0.3909,0.391,0.3964,0.3979,0.4023,0.4041,0.405,0.4074,0.4076,0.4071,0.4068,0.4065,0.4062,0.4057,0.4108,0.4035,0.4028,0.4029,0.4031,0.4181,0.4194,0.4205,0,0,0,0,0,0.3893,0.3899,0.3909,0.392,0.398,0.4023,0.4032,0.4067,0.4074,0.4079,0.409,0.4068,0.4069,0.4062,0.4056,0.4107,0.4027,0.4029,0.4031,0.4176,0.4191,0.4205,0,0,0,0,0,0,0.3848,0.3906,0.3918,0.3939,0.3975,0.403,0.4045,0.4064,0.408,0.408,0.4077,0.4075,0.4101,0.4063,0.4055,0.4105,0.4044,0.4045,0.4157,0.4171,0.4183,0.4228,0.4033,0,0,0,0,0,0.384,0.3862,0.3913,0.3929,0.3947,0.3992,0.4013,0.4037,0.4063,0.4071,0.4077,0.4079,0.4104,0.4104,0.4104,0.4118,0.4156,0.4144,0.4156,0.4166,0.4197,0.435,0.4382,0.4039,0.4039,0.4039,0,0,0.3826,0.3862,0.3873,0.3921,0.3953,0.4005,0.4003,0.4037,0.4093,0.4059,0.4116,0.4116,0.4115,0.4159,0.4165,0.4134,0.4271,0.4169,0.4179,0.4204,0.4356,0.4391,0.4421,0.404,0.404,0.404,0,0,0.3832,0.3842,0.3873,0.391,0.3963,0.3999,0.4007,0.4061,0.4092,0.4134,0.4152,0.4193,0.4184,0.4241,0.4258,0.4323,0.4332,0.4296,0.4399,0.4548,0.458,0.4609,0.4662,0.4695,0.4301,0.4301,0.4302,0,0.3812,0.3872,0.3885,0.3936,0.3986,0.4001,0.4063,0.4099,0.4149,0.4215,0.4159,0.4281,0.4246,0.4392,0.4398,0.4362,0.4412,0.4355,0.4574,0.4602,0.4629,0.4678,0.4712,0.4309,0.4308,0.4307,0.4307,0,0.3866,0.3911,0.3932,0.4013,0.4055,0.4104,0.4166,0.4214,0.4242,0.4311,0.4436,0.443,0.4519,0.4502,0.4456,0.4635,0.4595,0.4582,0.4557,0.4675,0.4715,0.4748,0.432,0.4317,0.4315,0.4313,0,0,0.383,0.395,0.3959,0.4022,0.4108,0.4153,0.4252,0.4381,0.4487,0.4533,0.4692,0.4729,0.4757,0.4775,0.4758,0.4848,0.5025,0.4781,0.4785,0.4867,0.531,0.5173,0.5194,0.5072,0.5079,0.5085,0.525,0,0.3876,0.3995,0.4048,0.4163,0.4232,0.43,0.4402,0.4516,0.4601,0.4741,0.482,0.4934,0.4857,0.4899,0.4997,0.5016,0.5123,0.4977,0.5153,0.5157,0.5053,0.5233,0.4941,0.5057,0.5281,0.5287,0.5291,0,0.393,0.4003,0.413,0.428,0.4317,0.4386,0.4579,0.4674,0.4877,0.4948,0.5116,0.5167,0.5319,0.521,0.5413,0.5327,0.5337,0.5343,0.5351,0.5202,0.5085,0.4978,0.5107,0.4968,0.534,0.5336,0.5333,0,0.3933,0.4071,0.4181,0.4228,0.4385,0.4464,0.4557,0.475,0.4865,0.5097,0.5204,0.5415,0.5483,0.5609,0.5593,0.5536,0.5779,0.5712,0.5622,0.5608,0.5382,0.5336,0.5429,0.5905,0.5905,0.5904,0.5904,0,0.3987,0.4069,0.4185,0.4241,0.4379,0.4481,0.465,0.4785,0.4985,0.5149,0.5311,0.5452,0.5587,0.5718,0.572,0.577,0.5913,0.5693,0.5686,0.5414,0.5372,0.5252,0.52,0.591,0.5909,0.5908,0.5907,0,0.4,0.4075,0.4194,0.4339,0.4384,0.4483,0.4665,0.4796,0.4985,0.5198,0.5281,0.5514,0.5681,0.5796,0.5949,0.5894,0.5801,0.595,0.5566,0.5511,0.5254,0.5219,0.5153,0.5013,0.5901,0.59,0.5898,0,0.4037,0.4098,0.4235,0.4296,0.4359,0.4494,0.4594,0.4779,0.4912,0.522,0.5322,0.5551,0.567,0.5852,0.5818,0.5877,0.5745,0.5633,0.548,0.5255,0.5215,0.5031,0.4905,0.5219,0.5212,0.5207,0.5202,0,0.4101,0.4137,0.4231,0.4324,0.4413,0.4517,0.4662,0.4744,0.4971,0.5117,0.5305,0.542,0.5578,0.5487,0.5555,0.5551,0.5341,0.5516,0.5428,0.4831,0.4498,0.4349,0.5038,0.5152,0.5157,0.5161,0.5163,0.5165,0.414,0.4195,0.4283,0.4364,0.4447,0.4505,0.4512,0.4652,0.4771,0.4895,0.5123,0.5136,0.5177,0.5208,0.5183,0.4943,0.4992,0.4767,0.4785,0.465,0.4395,0.4933,0.4949,0.4953,0.4956,0.4959,0.4962,0,0.4155,0.4215,0.4313,0.4357,0.4361,0.4431,0.452,0.4459,0.446,0.4607,0.4679,0.4635,0.456,0.4578,0.4428,0.4231,0.4042,0.4136,0.3825,0.3773,0.4381,0.4228,0.3912,0.3912,0.3912,0.3912,0.3912,0.3912,0.4168,0.4223,0.4245,0.4227,0.4235,0.4133,0.4111,0.4051,0.4067,0.3965,0.3877,0.3931,0.4103,0.4112,0.389,0.3776,0.3505,0.3301,0.34,0.383,0.3888,0.3944,0.379,0.3387,0.3386,0.2557,0.2551,0.2546]},{"header":{"parameterUnit":"m.s-1","parameterCategory":2,"la1":30.2991,"la2":30.254,"lo1":-89.0895,"lo2":-89.0444,"dy":0.0017,"dx":0.0017,"nx":28,"ny":28,"refTime":"2025-06-01T03:00:00:Z","depth":"0","parameterNumber":3,"parameterNumberName":"V-component_of_CURRENTS"},"data":[0,0,0,0,0,0,0,0,0,0,0,0,0,0,0,0,0,0,0,0,0,0,0,0,0,0,0,0,0,0,0,0,0,0,0,0,0,0,0,0,0,0,0,0,0,0,0,0,0,0,0,0,0,0,0,0,0,0,0.0134,0.0134,0,0.0076,0.0075,0.0074,0.0026,0.0026,0.0025,0.0025,-0.0066,-0.0068,-0.007,0,0,0,0,0,0,0,0,0,0,0,0,0,0.0156,0.0156,0.0134,0.0134,0.0133,0.0076,0.0075,0.0074,0.0026,0.0025,0.0025,0.0025,-0.0065,-0.0067,-0.007,0,0,0,0,0,0,0,0,0,0,0,0,0,0.0125,0.0156,0.0134,0.0104,0.0101,0.0077,0.0075,0.0074,0.0026,0.0025,0.0025,0.0025,-0.0064,-0.0067,-0.007,-0.0081,0,0,-0.008,-0.0081,0,0,0,0,0,0,0,0,0.0127,0.0124,0.0109,0.0106,0.0103,0.006,0.005,0.0021,0.0026,0.0052,0.0025,0.0024,-0.0025,-0.0031,-0.0044,-0.0085,-0.0089,-0.008,-0.0082,-0.0084,-0.0085,0,0,0,0,0,0,0,0.0129,0.0126,0.0109,0.0109,0.0105,0.0077,0.0072,0.0044,0.0014,0.005,0.0047,0.0044,-0.0027,-0.0041,-0.0047,-0.009,-0.008,-0.0083,-0.0085,-0.0086,-0.015,-0.015,0,0,0,0,0,0,0.0144,0.0128,0.0111,0.0107,0.0117,0.0078,0.0072,0.0072,0.0015,0.0007,0.0045,0.0042,-0.0035,-0.0043,-0.005,-0.0048,-0.0084,-0.0087,-0.0088,-0.0151,-0.015,-0.015,0,0,0,0,0,0,0.0145,0.0143,0.0113,0.0118,0.0113,0.0078,0.0078,0.0071,0.0062,0.0012,0.0003,0.0043,-0.0036,-0.0046,-0.0066,-0.0053,-0.0088,-0.0091,-0.0151,-0.0151,-0.015,-0.0056,0,0,0,0,0,0,0.0146,0.0144,0.0147,0.0119,0.0113,0.0112,0.0079,0.0071,0.0062,0.0058,0.0008,-0.0001,-0.0037,-0.0061,-0.0069,-0.0058,-0.0093,-0.0151,-0.0151,-0.015,-0.0059,-0.0053,-0.0047,0,0,0,0,0,0.0147,0.0161,0.0147,0.0145,0.0119,0.0113,0.0107,0.0079,0.0063,0.0067,0.0032,0.0,-0.0065,-0.0063,-0.0073,-0.0062,-0.0151,-0.0151,-0.015,-0.0062,-0.0054,-0.0047,0,0,0,0,0,0,0.0172,0.0157,0.0141,0.015,0.0137,0.0106,0.0106,0.0087,0.0062,0.0057,0.0007,-0.0004,-0.002,-0.0055,-0.0051,-0.0082,-0.0115,-0.0116,-0.0045,-0.0037,-0.0031,0.0011,-0.0096,0,0,0,0,0,0.018,0.0185,0.0165,0.0171,0.0168,0.0138,0.013,0.0114,0.0089,0.0078,0.0044,0.0004,-0.0027,-0.0041,-0.0076,-0.0086,-0.0094,-0.0089,-0.0082,-0.0077,-0.005,-0.0025,-0.0013,-0.0149,-0.0149,-0.0149,0,0,0.0189,0.0183,0.0184,0.0177,0.0161,0.0174,0.0132,0.013,0.0139,0.0072,0.007,0.0025,-0.0026,-0.004,-0.0051,-0.0064,-0.0051,-0.0076,-0.007,-0.0047,-0.0023,-0.0009,0.0003,-0.0148,-0.0148,-0.0148,0,0,0.0219,0.0208,0.0224,0.0223,0.0213,0.0201,0.0206,0.0182,0.0169,0.016,0.0113,0.0093,0.0036,0.0017,-0.0005,0.0018,-0.002,-0.0014,0.0058,0.0082,0.0095,0.0106,0.0084,0.0093,-0.0007,-0.0007,-0.0007,0,0.023,0.0253,0.0228,0.0249,0.0263,0.0221,0.0254,0.0234,0.0206,0.0211,0.0172,0.0131,0.0073,0.0087,0.0073,0.0038,0.0026,0.0036,0.0095,0.0106,0.0116,0.0091,0.01,-0.0002,-0.0003,-0.0003,-0.0004,0,0.0276,0.0296,0.0309,0.0326,0.0336,0.0356,0.0339,0.0335,0.0312,0.03,0.0303,0.0242,0.0229,0.0189,0.0126,0.0163,0.012,0.0102,0.0087,0.0136,0.0105,0.0112,0.0004,0.0003,0.0001,0.0,0,0,0.0301,0.0336,0.0341,0.0376,0.0385,0.0406,0.042,0.0438,0.0472,0.0429,0.049,0.0404,0.0383,0.0357,0.0294,0.0292,0.031,0.0219,0.0218,0.0216,0.0332,0.0288,0.029,0.0304,0.0306,0.0308,0.0272,0,0.0346,0.0417,0.0418,0.0492,0.0535,0.0518,0.0551,0.0559,0.0551,0.0592,0.0548,0.057,0.0446,0.0452,0.043,0.0355,0.0337,0.0319,0.0268,0.0266,0.0239,0.0301,0.0293,0.026,0.0279,0.028,0.0281,0,0.0395,0.0444,0.0527,0.0606,0.0624,0.0657,0.0725,0.0753,0.0781,0.0779,0.0793,0.0762,0.0754,0.0651,0.0571,0.0564,0.0451,0.038,0.0378,0.0319,0.0238,0.0217,0.0272,0.0085,0.0291,0.029,0.029,0,0.0449,0.0523,0.0602,0.0626,0.0698,0.0733,0.0776,0.0812,0.0874,0.0923,0.0985,0.0954,0.0972,0.0862,0.0683,0.0635,0.0599,0.0525,0.0378,0.0371,0.0348,0.0336,0.0241,0.0478,0.0479,0.0479,0.0479,0,0.0511,0.0572,0.0634,0.068,0.0796,0.0817,0.0933,0.0961,0.1048,0.1173,0.1106,0.1204,0.1026,0.0973,0.0782,0.0617,0.068,0.0415,0.0382,0.0373,0.0365,0.0186,0.0071,0.0477,0.0478,0.0478,0.0478,0,0.0562,0.0594,0.07,0.0789,0.0826,0.0917,0.1049,0.1141,0.1196,0.1369,0.1408,0.1406,0.1341,0.1143,0.0969,0.0758,0.0486,0.0513,0.0488,0.0454,0.0121,0.0012,-0.0128,-0.0201,0.0354,0.0353,0.0352,0,0.0599,0.0655,0.0786,0.0869,0.0913,0.1037,0.1136,0.1216,0.1336,0.1511,0.1627,0.1611,0.1641,0.136,0.1001,0.0692,0.0484,0.0439,0.0345,0.0129,-0.0017,-0.0112,-0.0168,0.0327,0.0326,0.0325,0.0325,0,0.0689,0.0727,0.0822,0.0978,0.1095,0.1238,0.1389,0.1503,0.164,0.1794,0.199,0.2036,0.1764,0.1456,0.0996,0.0766,0.0305,0.0411,0.0221,-0.0007,-0.0144,-0.0237,0.0284,0.0318,0.0319,0.0319,0.0319,0.032,0.0764,0.085,0.0967,0.1116,0.1256,0.1435,0.1565,0.1745,0.1969,0.223,0.2252,0.2355,0.1851,0.1239,0.0905,0.0248,0.024,0.0022,-0.0085,-0.0154,-0.024,0.0244,0.0222,0.0222,0.0222,0.0223,0.0223,0,0.0883,0.0968,0.1102,0.1286,0.144,0.1494,0.1737,0.1887,0.2166,0.2402,0.2573,0.2368,0.1782,0.1164,0.0266,-0.0177,-0.0327,-0.0408,-0.054,-0.0567,-0.01,-0.0117,-0.0251,-0.0251,-0.0251,-0.0251,-0.0251,-0.025,0.0956,0.1101,0.1155,0.1409,0.1534,0.175,0.1891,0.213,0.2327,0.2603,0.2665,0.2671,0.2149,0.0597,-0.0398,-0.0598,-0.0896,-0.0991,-0.1107,-0.0805,-0.0773,-0.0743,-0.0784,-0.1056,-0.1058,-0.1519,-0.1524,-0.1528]}],[{"header":{"parameterUnit":"m.s-1","parameterCategory":2,"la1":30.2991,"la2":30.254,"lo1":-89.0895,"lo2":-89.0444,"dy":0.0017,"dx":0.0017,"nx":28,"ny":28,"refTime":"2025-06-01T03:00:00:Z","depth":"2","parameterNumber":2,"parameterNumberName":"U-component_of_CURRENTS"},"data":[0,0,0,0,0,0,0,0,0,0,0,0,0,0,0,0,0,0,0,0,0,0,0,0,0,0,0,0,0,0,0,0,0,0,0,0,0,0,0,0,0,0,0,0,0,0,0,0,0,0,0,0,0,0,0,0,0,0,0.3077,0.3078,0,0.3159,0.316,0.3161,0.3187,0.3186,0.3186,0.3186,0.3167,0.3167,0.3167,0,0,0,0,0,0,0,0,0,0,0,0,0,0.3021,0.3021,0.3077,0.3078,0.3079,0.3159,0.316,0.3161,0.3187,0.3186,0.3186,0.3186,0.3168,0.3167,0.3167,0,0,0,0,0,0,0,0,0,0,0,0,0,0.3066,0.3021,0.3076,0.3103,0.3107,0.3159,0.316,0.3161,0.3187,0.3186,0.3186,0.3186,0.3168,0.3167,0.3167,0.3169,0,0,0.3165,0.3165,0,0,0,0,0,0,0,0,0.3063,0.3067,0.3098,0.3102,0.3105,0.3164,0.3134,0.316,0.3187,0.3154,0.3186,0.3186,0.3159,0.3159,0.3173,0.3168,0.3168,0.3165,0.3165,0.3165,0.3165,0,0,0,0,0,0,0,0.306,0.3065,0.3107,0.31,0.3104,0.3139,0.3144,0.314,0.3153,0.3157,0.3159,0.3172,0.316,0.3174,0.3173,0.3167,0.3165,0.3165,0.3165,0.3164,0.322,0.3221,0,0,0,0,0,0,0.305,0.3061,0.3104,0.311,0.3086,0.314,0.3145,0.3144,0.3155,0.3159,0.3173,0.3173,0.3175,0.3173,0.3172,0.3242,0.3165,0.3164,0.3164,0.3218,0.322,0.3222,0,0,0,0,0,0,0.3049,0.3053,0.3101,0.309,0.3099,0.3141,0.3139,0.3146,0.3165,0.3169,0.317,0.3186,0.3175,0.3173,0.3176,0.3238,0.3164,0.3164,0.3216,0.3218,0.3221,0.3338,0,0,0,0,0,0,0.3046,0.3051,0.3058,0.3089,0.3099,0.3126,0.314,0.3148,0.3174,0.3176,0.318,0.3178,0.3174,0.3177,0.3176,0.3236,0.3163,0.3214,0.3217,0.322,0.3332,0.3345,0.3355,0,0,0,0,0,0.3044,0.3047,0.3057,0.3064,0.3102,0.3126,0.3134,0.3163,0.3175,0.3179,0.3191,0.3178,0.3198,0.3178,0.3176,0.3238,0.3212,0.3216,0.322,0.3327,0.3342,0.3355,0,0,0,0,0,0,0.3026,0.3051,0.3063,0.3073,0.3097,0.3131,0.3151,0.3166,0.3182,0.3192,0.3186,0.3185,0.3218,0.32,0.3178,0.3263,0.3209,0.3213,0.3291,0.3305,0.3317,0.335,0.3163,0,0,0,0,0,0.3026,0.3031,0.3061,0.307,0.3085,0.312,0.3139,0.3159,0.3177,0.3185,0.319,0.3205,0.3235,0.3244,0.3251,0.3284,0.331,0.3326,0.3337,0.3347,0.3373,0.3502,0.3529,0.3235,0.3235,0.3235,0,0,0.3021,0.3038,0.3042,0.3067,0.3094,0.3134,0.313,0.3162,0.3208,0.3179,0.3231,0.3236,0.3248,0.3299,0.3314,0.3292,0.3433,0.3352,0.3361,0.3382,0.351,0.3539,0.3565,0.3238,0.3237,0.3237,0,0,0.3027,0.3032,0.305,0.3072,0.3116,0.3145,0.3153,0.3192,0.3222,0.3261,0.3275,0.3316,0.3329,0.3378,0.34,0.3474,0.3486,0.3474,0.3569,0.3695,0.3721,0.3745,0.3773,0.3798,0.3487,0.3487,0.3487,0,0.3032,0.3058,0.3059,0.3093,0.3133,0.3151,0.3203,0.3234,0.3271,0.3327,0.3286,0.3397,0.3383,0.3508,0.3531,0.3507,0.355,0.3518,0.3715,0.3739,0.3762,0.3785,0.3812,0.3493,0.3493,0.3492,0.3491,0,0.3058,0.3091,0.3104,0.3159,0.3194,0.3235,0.3287,0.3325,0.3361,0.3421,0.3528,0.3527,0.3616,0.361,0.3587,0.3753,0.3718,0.3714,0.3689,0.38,0.3815,0.3841,0.3502,0.35,0.3498,0.3497,0,0,0.3045,0.3116,0.3123,0.3168,0.3242,0.327,0.3358,0.3465,0.356,0.3596,0.3736,0.3777,0.3817,0.3843,0.3842,0.3919,0.4073,0.3888,0.3891,0.3929,0.4307,0.4151,0.4162,0.4128,0.4134,0.4139,0.4238,0,0.3081,0.3166,0.3191,0.3278,0.3337,0.3385,0.3457,0.3555,0.3656,0.3783,0.385,0.3962,0.3902,0.3957,0.4043,0.4065,0.4155,0.4043,0.4181,0.4184,0.4047,0.4193,0.3863,0.3915,0.4263,0.4267,0.427,0,0.3103,0.317,0.3268,0.3363,0.339,0.3439,0.3601,0.369,0.3878,0.3954,0.4119,0.4173,0.4304,0.4229,0.4383,0.4323,0.4345,0.4339,0.4344,0.4184,0.4079,0.3868,0.3948,0.4313,0.4309,0.4306,0.4303,0,0.3105,0.3213,0.3301,0.3333,0.3443,0.3499,0.3586,0.3763,0.3876,0.412,0.4216,0.4394,0.447,0.4563,0.4557,0.4506,0.4696,0.4629,0.451,0.4494,0.4231,0.4182,0.4789,0.4788,0.4788,0.4788,0.4788,0,0.3122,0.3184,0.3306,0.3342,0.3447,0.3538,0.3691,0.3802,0.4014,0.4162,0.4334,0.4443,0.4566,0.4671,0.4665,0.4665,0.4811,0.4561,0.4547,0.425,0.4206,0.4564,0.4536,0.4791,0.4791,0.479,0.4789,0,0.3091,0.3166,0.3269,0.3402,0.3441,0.3538,0.372,0.385,0.404,0.4245,0.4323,0.4528,0.4636,0.4724,0.4841,0.4769,0.4797,0.4771,0.4361,0.4296,0.4468,0.4445,0.4637,0.4633,0.4629,0.4627,0.4624,0,0.3104,0.3147,0.3294,0.3359,0.3415,0.3565,0.366,0.3855,0.3984,0.4255,0.4322,0.452,0.4574,0.4689,0.4658,0.4661,0.4762,0.4329,0.4171,0.4505,0.4472,0.4454,0.4436,0.3843,0.3835,0.3828,0.3822,0,0.3096,0.3128,0.3201,0.3353,0.3454,0.3553,0.3694,0.3762,0.3981,0.4088,0.4204,0.4278,0.4416,0.4258,0.4301,0.4253,0.4295,0.4181,0.4731,0.3921,0.3763,0.3727,0.3736,0.376,0.3767,0.3771,0.3775,0.3777,0.3085,0.3141,0.3219,0.3341,0.345,0.3485,0.348,0.359,0.3664,0.3729,0.3928,0.3902,0.398,0.3834,0.3739,0.3684,0.395,0.3758,0.3778,0.3806,0.3685,0.353,0.3456,0.346,0.3463,0.3467,0.347,0,0.3089,0.3126,0.3211,0.3273,0.3282,0.3406,0.3445,0.3353,0.3294,0.3428,0.3446,0.3199,0.3119,0.3216,0.303,0.3014,0.2979,0.289,0.2819,0.2885,0.2942,0.2775,0.2305,0.2301,0.2297,0.2293,0,0,0.3086,0.3104,0.312,0.305,0.312,0.3059,0.3039,0.2894,0.2883,0.2762,0.2741,0.2971,0.3117,0.2666,0.2621,0.2426,0.2629,0.2335,0.3281,0.3265,0.3317,0.3469,0.3289,0,0,0,0,0]},{"header":{"parameterUnit":"m.s-1","parameterCategory":2,"la1":30.2991,"la2":30.254,"lo1":-89.0895,"lo2":-89.0444,"dy":0.0017,"dx":0.0017,"nx":28,"ny":28,"refTime":"2025-06-01T03:00:00:Z","depth":"2","parameterNumber":3,"parameterNumberName":"V-component_of_CURRENTS"},"data":[0,0,0,0,0,0,0,0,0,0,0,0,0,0,0,0,0,0,0,0,0,0,0,0,0,0,0,0,0,0,0,0,0,0,0,0,0,0,0,0,0,0,0,0,0,0,0,0,0,0,0,0,0,0,0,0,0,0,0.0075,0.0074,0,0.0015,0.0014,0.0014,-0.0024,-0.0024,-0.0024,-0.0024,-0.0107,-0.0109,-0.0111,0,0,0,0,0,0,0,0,0,0,0,0,0,0.0099,0.0099,0.0075,0.0074,0.0073,0.0015,0.0014,0.0013,-0.0024,-0.0024,-0.0024,-0.0024,-0.0106,-0.0109,-0.0111,0,0,0,0,0,0,0,0,0,0,0,0,0,0.0068,0.0099,0.0075,0.0049,0.0046,0.0016,0.0014,0.0013,-0.0024,-0.0024,-0.0024,-0.0024,-0.0105,-0.0109,-0.0112,-0.013,0,0,-0.0122,-0.0123,0,0,0,0,0,0,0,0,0.007,0.0067,0.0053,0.0051,0.0048,0.0004,-0.0007,-0.0035,-0.0024,0.0001,-0.0024,-0.0024,-0.0071,-0.0077,-0.009,-0.0134,-0.0137,-0.0122,-0.0124,-0.0125,-0.0126,0,0,0,0,0,0,0,0.0072,0.0069,0.0049,0.0053,0.0049,0.0021,0.0017,-0.0013,-0.0036,-0.0001,-0.0004,-0.0008,-0.0073,-0.0087,-0.0092,-0.0139,-0.0122,-0.0125,-0.0127,-0.0128,-0.0199,-0.0199,0,0,0,0,0,0,0.0086,0.0071,0.0051,0.0048,0.0061,0.0021,0.0016,0.0017,-0.0035,-0.0042,-0.0007,-0.0009,-0.0081,-0.0088,-0.0095,-0.0099,-0.0125,-0.0128,-0.013,-0.0199,-0.0199,-0.0199,0,0,0,0,0,0,0.0087,0.0085,0.0054,0.0059,0.0053,0.0022,0.0022,0.0016,0.0007,-0.0039,-0.0047,-0.0008,-0.0082,-0.0091,-0.0111,-0.0103,-0.013,-0.0133,-0.0199,-0.0199,-0.0199,-0.0119,0,0,0,0,0,0,0.0088,0.0086,0.0088,0.006,0.0054,0.0049,0.0022,0.0015,0.0006,0.0003,-0.0043,-0.0051,-0.0082,-0.0105,-0.0114,-0.0108,-0.0135,-0.0199,-0.0199,-0.0199,-0.0122,-0.0116,-0.0111,0,0,0,0,0,0.0089,0.01,0.0089,0.0086,0.0059,0.005,0.0045,0.002,0.0006,0.001,-0.0021,-0.0049,-0.0111,-0.0108,-0.0118,-0.0112,-0.0199,-0.0199,-0.0199,-0.0124,-0.0117,-0.0111,0,0,0,0,0,0,0.011,0.0096,0.0083,0.0088,0.0076,0.0045,0.0043,0.0027,0.0004,-0.0,-0.0045,-0.0055,-0.0071,-0.0104,-0.0099,-0.0135,-0.0162,-0.0164,-0.0101,-0.0096,-0.009,-0.0051,-0.0138,0,0,0,0,0,0.0117,0.0121,0.0102,0.0105,0.0102,0.0073,0.0065,0.0051,0.0028,0.0017,-0.0014,-0.0051,-0.0081,-0.0095,-0.0128,-0.0143,-0.0162,-0.0149,-0.0144,-0.0139,-0.0116,-0.012,-0.0112,-0.0199,-0.0199,-0.0199,0,0,0.0123,0.0117,0.0118,0.011,0.0095,0.0107,0.0068,0.0064,0.0072,0.0012,0.0009,-0.0033,-0.0081,-0.0098,-0.0109,-0.0122,-0.0132,-0.0139,-0.0135,-0.0113,-0.0119,-0.011,-0.0102,-0.0199,-0.0199,-0.0199,0,0,0.0149,0.0137,0.0153,0.0153,0.0143,0.013,0.0135,0.0111,0.0098,0.0088,0.0045,0.0021,-0.003,-0.0054,-0.0076,-0.0062,-0.0104,-0.0088,-0.0029,-0.0033,-0.0025,-0.0018,-0.0056,-0.0053,-0.0085,-0.0085,-0.0085,0,0.0157,0.0181,0.0156,0.0178,0.019,0.0149,0.018,0.0158,0.0131,0.0131,0.01,0.005,-0.0002,-0.0004,-0.0013,-0.0046,-0.0069,-0.0045,-0.0023,-0.0016,-0.0011,-0.0051,-0.0049,-0.0081,-0.0082,-0.0082,-0.0082,0,0.0201,0.0222,0.0234,0.0253,0.026,0.0279,0.0259,0.0252,0.0229,0.0213,0.0203,0.0141,0.0119,0.0083,0.0033,0.0044,0.0005,-0.0013,-0.003,0.0004,-0.0043,-0.0042,-0.0076,-0.0077,-0.0078,-0.0079,0,0,0.0222,0.0259,0.0265,0.0304,0.0308,0.0329,0.0334,0.0343,0.0371,0.032,0.0362,0.0277,0.0249,0.0223,0.0161,0.0141,0.013,0.0079,0.0077,0.0057,0.0097,0.005,0.0046,0.0117,0.0118,0.0119,0.0039,0,0.0268,0.034,0.034,0.0416,0.046,0.0439,0.0461,0.0459,0.0446,0.047,0.0404,0.0415,0.0301,0.0303,0.026,0.0175,0.0141,0.0152,0.0055,0.0052,0.002,0.005,0.0081,0.0013,0.004,0.004,0.004,0,0.0317,0.0367,0.0449,0.0529,0.0546,0.0578,0.0632,0.0652,0.0652,0.0643,0.063,0.0585,0.054,0.0456,0.0326,0.0337,0.0224,0.0147,0.0142,0.0081,0.0009,-0.0013,0.0013,0.0042,0.0042,0.0042,0.0041,0,0.0374,0.045,0.0529,0.0554,0.062,0.0652,0.069,0.0706,0.076,0.0775,0.0822,0.0743,0.0739,0.0598,0.0402,0.0372,0.0268,0.021,0.0061,0.0054,0.0056,0.0048,0.0138,0.0138,0.0139,0.0139,0.0139,0,0.044,0.0504,0.0564,0.0613,0.0723,0.0739,0.0848,0.0863,0.0926,0.1028,0.0933,0.0989,0.0778,0.0682,0.0477,0.0273,0.0321,0.0086,0.0046,0.0078,0.0074,0.0083,0.0078,0.0136,0.0136,0.0137,0.0138,0,0.0498,0.0527,0.0635,0.072,0.0755,0.0843,0.0972,0.1059,0.1088,0.1225,0.1249,0.1188,0.1048,0.0816,0.0593,0.039,0.0193,0.0108,0.0139,0.0104,-0.0046,-0.0047,-0.0066,-0.0068,-0.007,-0.0071,-0.0072,0,0.0537,0.0595,0.0724,0.0803,0.0849,0.0971,0.1068,0.1138,0.1248,0.135,0.1439,0.135,0.1291,0.0927,0.0579,0.0233,0.0186,0.003,-0.0024,-0.0022,-0.006,-0.0058,-0.0056,-0.0009,-0.001,-0.001,-0.0011,0,0.063,0.0668,0.0761,0.0915,0.1033,0.1181,0.1325,0.1431,0.1537,0.1626,0.1717,0.1677,0.1344,0.0996,0.0528,0.0295,0.0082,0.0007,0.0041,0.0036,0.0025,-0.001,-0.0009,-0.0015,-0.0014,-0.0014,-0.0014,-0.0014,0.0704,0.079,0.0906,0.1053,0.1194,0.1375,0.15,0.1644,0.181,0.1937,0.1896,0.1826,0.1454,0.0839,0.0449,0.0043,0.0051,-0.0107,-0.0102,-0.0098,-0.0078,-0.0091,-0.0152,-0.0152,-0.0152,-0.0153,-0.0153,0,0.0813,0.0905,0.1043,0.122,0.1372,0.1432,0.1665,0.1769,0.1948,0.2034,0.2058,0.1693,0.1311,0.0887,0.0285,-0.0084,-0.01,-0.0202,-0.014,-0.0133,-0.0127,-0.0107,-0.019,-0.0191,-0.0192,-0.0193,0,0,0.0881,0.103,0.1093,0.1338,0.1456,0.1666,0.1797,0.1933,0.2029,0.2071,0.2028,0.1926,0.143,0.0984,0.0494,0.0152,0.0093,0.0083,0.0152,0.0291,0.0301,-0.0034,0.001,0,0,0,0,0]}],[{"header":{"parameterUnit":"m.s-1","parameterCategory":2,"la1":30.2991,"la2":30.254,"lo1":-89.0895,"lo2":-89.0444,"dy":0.0017,"dx":0.0017,"nx":28,"ny":28,"refTime":"2025-06-01T03:00:00:Z","depth":"4","parameterNumber":2,"parameterNumberName":"U-component_of_CURRENTS"},"data":[0,0,0,0,0,0,0,0,0,0,0,0,0,0,0,0,0,0,0,0,0,0,0,0,0,0,0,0,0,0,0,0,0,0,0,0,0,0,0,0,0,0,0,0,0,0,0,0,0,0,0,0,0,0,0,0,0,0,0.1816,0.1816,0,0.1854,0.1854,0.1854,0.1921,0.1922,0.1923,0.1925,0.2038,0.204,0.2041,0,0,0,0,0,0,0,0,0,0,0,0,0,0.1789,0.1789,0.1816,0.1816,0.1817,0.1854,0.1854,0.1854,0.192,0.1922,0.1924,0.1925,0.2037,0.2039,0.2042,0,0,0,0,0,0,0,0,0,0,0,0,0,0.181,0.1789,0.1815,0.1855,0.1859,0.1854,0.1854,0.1855,0.192,0.1922,0.1924,0.1926,0.2037,0.2039,0.2042,0.2016,0,0,0.205,0.2051,0,0,0,0,0,0,0,0,0.1808,0.181,0.1849,0.1853,0.1857,0.1886,0.1886,0.1913,0.1919,0.1895,0.1925,0.1927,0.1994,0.2,0.1999,0.2021,0.2026,0.205,0.2051,0.2053,0.2053,0,0,0,0,0,0,0,0.1807,0.1809,0.1829,0.1849,0.1854,0.1868,0.1873,0.1891,0.1932,0.1898,0.1903,0.1909,0.1996,0.1996,0.2002,0.2028,0.205,0.2052,0.2054,0.2055,0.2175,0.2176,0,0,0,0,0,0,0.1804,0.1808,0.1828,0.183,0.1839,0.1867,0.1872,0.1873,0.1931,0.1941,0.1907,0.1912,0.1991,0.1999,0.2007,0.2093,0.2053,0.2055,0.2056,0.2173,0.2175,0.2177,0,0,0,0,0,0,0.1803,0.1805,0.1826,0.1822,0.1826,0.1865,0.1865,0.1873,0.1924,0.1937,0.195,0.1956,0.1993,0.2003,0.2065,0.2094,0.2056,0.2059,0.2171,0.2174,0.2176,0.2192,0,0,0,0,0,0,0.1802,0.1804,0.1821,0.1821,0.1826,0.1857,0.1864,0.1872,0.1922,0.193,0.1983,0.1992,0.1995,0.2061,0.2068,0.2096,0.2061,0.2169,0.2172,0.2175,0.219,0.2195,0.2199,0,0,0,0,0,0.18,0.1807,0.1821,0.1825,0.1842,0.1858,0.1863,0.1896,0.1923,0.1949,0.1987,0.1993,0.2086,0.2064,0.2072,0.2102,0.2168,0.2171,0.2175,0.2187,0.2194,0.2199,0,0,0,0,0,0,0.1809,0.1814,0.183,0.1841,0.1867,0.1871,0.1899,0.1921,0.1969,0.1992,0.2009,0.2021,0.2087,0.2095,0.2071,0.2148,0.213,0.2135,0.2137,0.2143,0.2148,0.2176,0.2063,0,0,0,0,0,0.1815,0.1825,0.1837,0.1854,0.187,0.1895,0.1914,0.1938,0.1968,0.1994,0.2026,0.2065,0.2096,0.2124,0.2151,0.2189,0.2227,0.2217,0.2222,0.2225,0.2256,0.2353,0.237,0.2189,0.2189,0.2189,0,0,0.1823,0.183,0.1837,0.1858,0.1881,0.1902,0.1913,0.1955,0.1982,0.1997,0.2059,0.2088,0.2112,0.2156,0.2186,0.2174,0.2289,0.223,0.2233,0.2262,0.2359,0.2377,0.2393,0.2191,0.2191,0.2191,0,0,0.1827,0.1855,0.186,0.1884,0.1924,0.1939,0.1963,0.1995,0.2028,0.208,0.2097,0.2152,0.2197,0.2216,0.2231,0.2284,0.2314,0.2295,0.2341,0.2434,0.245,0.2465,0.2497,0.2515,0.2294,0.2294,0.2294,0,0.1845,0.1843,0.187,0.1885,0.1911,0.1962,0.1984,0.2014,0.2066,0.2091,0.2114,0.221,0.2226,0.2282,0.2299,0.2296,0.2344,0.2308,0.2441,0.2457,0.2472,0.2502,0.2522,0.2295,0.2295,0.2295,0.2295,0,0.1831,0.1858,0.187,0.1903,0.194,0.1971,0.2015,0.206,0.2113,0.214,0.2231,0.2272,0.2335,0.2338,0.2335,0.2439,0.2434,0.2436,0.2424,0.2491,0.2518,0.2538,0.2297,0.2297,0.2296,0.2296,0,0,0.18,0.1848,0.1856,0.1882,0.1955,0.1976,0.2037,0.2089,0.2136,0.2213,0.2295,0.2347,0.24,0.2424,0.2442,0.2517,0.2632,0.253,0.2534,0.2558,0.2819,0.2626,0.2629,0.2674,0.2678,0.2682,0.2781,0,0.1788,0.1797,0.1841,0.1892,0.1907,0.1986,0.2039,0.2104,0.2169,0.2261,0.2342,0.2437,0.2423,0.2488,0.2559,0.2636,0.2694,0.2603,0.2756,0.276,0.2578,0.2649,0.2696,0.2795,0.28,0.2803,0.2806,0,0.175,0.1765,0.1789,0.1878,0.1899,0.1963,0.2062,0.2119,0.2244,0.2306,0.2422,0.2504,0.2639,0.2635,0.2802,0.2756,0.2797,0.2839,0.2844,0.2682,0.2606,0.2727,0.2842,0.2839,0.2836,0.2834,0.2832,0,0.1673,0.1736,0.1753,0.1779,0.1881,0.1946,0.2033,0.2143,0.221,0.2379,0.2467,0.2616,0.2758,0.2846,0.2928,0.29,0.3107,0.3066,0.2916,0.2901,0.3037,0.3021,0.3188,0.3187,0.3187,0.3187,0.3187,0,0.1615,0.164,0.1733,0.1748,0.1817,0.1925,0.2038,0.2118,0.2285,0.2381,0.2519,0.2638,0.2839,0.2965,0.299,0.3013,0.3157,0.2946,0.2932,0.3033,0.3016,0.3048,0.303,0.3191,0.319,0.3189,0.3188,0,0.1524,0.157,0.1614,0.1736,0.1785,0.1852,0.206,0.2122,0.2291,0.2439,0.2522,0.2737,0.289,0.3003,0.3174,0.309,0.3124,0.3087,0.3175,0.3161,0.2831,0.2814,0.2927,0.2922,0.2917,0.2913,0.291,0,0.1455,0.1463,0.1594,0.1624,0.17,0.1827,0.1905,0.2107,0.2188,0.2463,0.2522,0.2762,0.2873,0.2939,0.307,0.3094,0.3056,0.3042,0.2939,0.2839,0.2815,0.2804,0.2794,0.2902,0.2901,0.29,0.2899,0,0.1343,0.1417,0.1462,0.1536,0.1628,0.1707,0.1861,0.192,0.2152,0.233,0.2473,0.2574,0.274,0.2848,0.2897,0.2903,0.3037,0.2991,0.3,0.2903,0.281,0.2788,0.2783,0.2882,0.2885,0.2886,0.2887,0,0.1279,0.129,0.1368,0.143,0.1524,0.1568,0.167,0.1797,0.1924,0.2226,0.2287,0.2508,0.2732,0.2751,0.2792,0.279,0.2739,0.2639,0.2665,0.2684,0.2558,0.2401,0.2357,0,0,0,0,0,0.1211,0.1208,0.1239,0.1308,0.1402,0.1463,0.1612,0.1719,0.1971,0.2005,0.214,0.2267,0.2383,0.2509,0.2456,0.2666,0.2731,0.2592,0.2624,0.2792,0.281,0.2684,0,0,0,0,0,0,0.1155,0.1187,0.1195,0.12,0.1227,0.1318,0.1413,0.1565,0.1604,0.186,0.1933,0.2126,0.2262,0.2387,0.2414,0.2446,0.2417,0.2733,0.2727,0.2781,0.2798,0.2813,0.2689,0,0,0,0,0]},{"header":{"parameterUnit":"m.s-1","parameterCategory":2,"la1":30.2991,"la2":30.254,"lo1":-89.0895,"lo2":-89.0444,"dy":0.0017,"dx":0.0017,"nx":28,"ny":28,"refTime":"2025-06-01T03:00:00:Z","depth":"4","parameterNumber":3,"parameterNumberName":"V-component_of_CURRENTS"},"data":[0,0,0,0,0,0,0,0,0,0,0,0,0,0,0,0,0,0,0,0,0,0,0,0,0,0,0,0,0,0,0,0,0,0,0,0,0,0,0,0,0,0,0,0,0,0,0,0,0,0,0,0,0,0,0,0,0,0,0.0073,0.0073,0,0.0035,0.0034,0.0034,0.0011,0.0011,0.0011,0.0011,-0.0057,-0.0059,-0.0061,0,0,0,0,0,0,0,0,0,0,0,0,0,0.0087,0.0087,0.0073,0.0073,0.0072,0.0035,0.0034,0.0034,0.0011,0.0011,0.0011,0.0011,-0.0057,-0.0059,-0.0061,0,0,0,0,0,0,0,0,0,0,0,0,0,0.0068,0.0087,0.0073,0.0057,0.0055,0.0035,0.0034,0.0034,0.0011,0.0011,0.0011,0.0011,-0.0056,-0.0059,-0.0061,-0.0078,0,0,-0.007,-0.0071,0,0,0,0,0,0,0,0,0.0069,0.0067,0.006,0.0058,0.0056,0.0029,0.0014,-0.0005,0.0011,0.0027,0.0011,0.0011,-0.0031,-0.0036,-0.0044,-0.0081,-0.0084,-0.007,-0.0072,-0.0073,-0.0074,0,0,0,0,0,0,0,0.007,0.0068,0.0057,0.006,0.0057,0.0039,0.0036,0.001,-0.0003,0.0025,0.0024,0.0021,-0.0032,-0.0041,-0.0046,-0.0085,-0.007,-0.0072,-0.0074,-0.0075,-0.0133,-0.0133,0,0,0,0,0,0,0.0079,0.007,0.0058,0.0056,0.0064,0.0039,0.0036,0.0037,-0.0002,-0.0007,0.0021,0.002,-0.0037,-0.0042,-0.0048,-0.0046,-0.0073,-0.0075,-0.0077,-0.0133,-0.0133,-0.0133,0,0,0,0,0,0,0.008,0.0079,0.006,0.0062,0.0059,0.0039,0.004,0.0036,0.0031,-0.0005,-0.0011,0.0021,-0.0037,-0.0044,-0.0061,-0.005,-0.0077,-0.0079,-0.0133,-0.0133,-0.0133,-0.0058,0,0,0,0,0,0,0.008,0.0079,0.0081,0.0063,0.0059,0.0058,0.004,0.0035,0.003,0.0028,-0.0007,-0.0013,-0.0037,-0.0057,-0.0064,-0.0054,-0.0081,-0.0133,-0.0133,-0.0133,-0.0061,-0.0056,-0.0051,0,0,0,0,0,0.0081,0.0089,0.0082,0.008,0.0064,0.0058,0.0055,0.0039,0.003,0.0033,0.001,-0.0012,-0.0061,-0.0059,-0.0067,-0.0058,-0.0133,-0.0133,-0.0133,-0.0063,-0.0057,-0.0051,0,0,0,0,0,0,0.0094,0.0087,0.0079,0.0083,0.0075,0.0055,0.0055,0.0044,0.0028,0.0025,-0.0009,-0.0017,-0.0029,-0.0057,-0.0053,-0.0077,-0.0102,-0.0104,-0.0046,-0.0041,-0.0036,-0.0015,-0.0083,0,0,0,0,0,0.0099,0.0104,0.0092,0.0095,0.0093,0.0074,0.0069,0.006,0.0044,0.0037,0.0013,-0.0015,-0.0036,-0.0047,-0.0073,-0.0084,-0.0118,-0.0086,-0.0081,-0.0077,-0.0067,-0.0109,-0.0107,-0.0132,-0.0132,-0.0132,0,0,0.0103,0.0101,0.0102,0.0098,0.0089,0.0102,0.0071,0.0069,0.008,0.0031,0.0035,0.0001,-0.0036,-0.0046,-0.0054,-0.0066,-0.0089,-0.0076,-0.0072,-0.0064,-0.0109,-0.0106,-0.0104,-0.0132,-0.0132,-0.0132,0,0,0.0124,0.0114,0.013,0.0131,0.0126,0.0119,0.0123,0.0108,0.01,0.0096,0.0063,0.0042,0.0008,-0.0012,-0.0028,-0.0014,-0.0063,-0.0029,0.0016,-0.0025,-0.0023,-0.0022,-0.0065,-0.0068,-0.0025,-0.0024,-0.0024,0,0.013,0.0153,0.0133,0.0154,0.0165,0.0134,0.0162,0.0149,0.0131,0.0124,0.0108,0.0059,0.0028,0.0018,0.0024,-0.0,-0.0036,0.0001,-0.0017,-0.0017,-0.0017,-0.0061,-0.0066,-0.0021,-0.0021,-0.0022,-0.0022,0,0.0169,0.019,0.02,0.0222,0.0228,0.0245,0.0233,0.0228,0.0212,0.0194,0.0175,0.0131,0.0103,0.0087,0.0062,0.0049,0.0018,-0.0006,-0.0027,-0.0009,-0.0058,-0.0064,-0.0016,-0.0017,-0.0018,-0.0019,0,0,0.018,0.0222,0.0227,0.026,0.027,0.0284,0.0294,0.0296,0.0304,0.0268,0.0276,0.023,0.0194,0.0174,0.0133,0.01,0.0069,0.0054,0.005,0.0021,-0.0028,-0.0033,-0.004,0.0038,0.0038,0.0037,-0.0064,0,0.0221,0.0285,0.0292,0.0357,0.0392,0.0376,0.0395,0.0386,0.0364,0.0358,0.0299,0.0289,0.0231,0.0223,0.0178,0.0099,0.0057,0.0098,-0.005,-0.0054,-0.0052,-0.0045,0.0036,-0.0068,-0.007,-0.0071,-0.0071,0,0.0266,0.0305,0.0379,0.0439,0.0451,0.0483,0.0506,0.0523,0.049,0.0469,0.0431,0.0378,0.033,0.0281,0.0149,0.0175,0.0082,0.0014,0.0008,-0.0023,-0.0068,-0.0092,-0.0083,-0.0082,-0.0081,-0.008,-0.0079,0,0.0302,0.0371,0.0437,0.0459,0.0511,0.0538,0.0566,0.0555,0.0581,0.0547,0.0547,0.046,0.044,0.0307,0.0157,0.0151,0.0006,-0.0023,-0.0119,-0.0121,-0.012,-0.0121,-0.0119,-0.0119,-0.0119,-0.0118,-0.0118,0,0.0356,0.0409,0.0464,0.0504,0.0584,0.0599,0.067,0.0668,0.0681,0.0718,0.0619,0.0616,0.0447,0.0336,0.0181,0.0016,0.0016,-0.0107,-0.0144,-0.0088,-0.0084,-0.0125,-0.0124,-0.0122,-0.0121,-0.0121,-0.012,0,0.0393,0.043,0.051,0.0577,0.0612,0.067,0.0766,0.0809,0.0801,0.0847,0.0845,0.0746,0.0599,0.0404,0.0198,0.007,-0.0103,-0.0166,-0.0089,-0.0121,-0.021,-0.0205,-0.0275,-0.0276,-0.0277,-0.0278,-0.0278,0,0.0423,0.0469,0.0567,0.0626,0.0667,0.076,0.0831,0.0873,0.0918,0.0922,0.0944,0.0829,0.073,0.0436,0.0223,-0.0078,-0.0123,-0.0216,-0.0215,-0.0196,-0.0225,-0.0218,-0.0212,-0.028,-0.028,-0.028,-0.028,0,0.0474,0.0502,0.0562,0.0678,0.0772,0.0885,0.098,0.1023,0.1067,0.1063,0.1025,0.0869,0.0706,0.0458,0.0225,0.0006,-0.0157,-0.0225,-0.0225,-0.0225,-0.0202,-0.0228,-0.0221,-0.0283,-0.0282,-0.0282,-0.0282,0,0.05,0.0548,0.0624,0.0728,0.0844,0.0962,0.102,0.1076,0.1127,0.1115,0.1107,0.0915,0.0816,0.0502,0.0284,0.007,0.0013,-0.0059,-0.0068,-0.0068,0.0016,0.0078,0.0057,0,0,0,0,0,0.0525,0.0586,0.0674,0.0792,0.09,0.0977,0.1094,0.1136,0.1175,0.1162,0.1135,0.0975,0.0671,0.054,0.0326,0.0252,-0.0036,-0.0007,-0.0127,-0.0298,-0.0295,-0.0232,0,0,0,0,0,0,0.0545,0.0628,0.0671,0.0815,0.09,0.1043,0.112,0.1159,0.1141,0.1139,0.098,0.0913,0.0612,0.0789,0.0318,0.0255,0.0148,-0.0148,-0.0153,-0.0299,-0.0297,-0.0294,-0.0228,0,0,0,0,0]}]]